GEFSCGP_con_prob3kmehi_210.txt.gz
EHI
0 0 0 0 0 0 0 0 0 0 0 0 0 2 6 8 9 9 10 12 19 28 35 37 37 41 48 53 55 53 47 42 40 38 37 37 38 37 36 37 37 36 36 36
0 0 0 0 0 0 0 0 0 0 0 0 0 2 5 8 8 8 10 14 19 27 35 39 39 40 45 50 51 49 45 41 40 39 37 36 36 36 35 35 35 35 34 34
0 0 0 0 0 0 0 0 0 0 0 0 0 1 4 7 8 7 10 15 19 26 34 39 38 36 38 43 45 44 41 39 39 38 36 34 34 34 34 34 33 31 30 30
0 0 0 0 0 0 0 0 0 0 0 0 0 1 3 6 7 9 12 15 18 24 32 37 37 34 32 34 36 38 37 36 35 34 33 32 30 30 31 31 30 27 26 25
0 0 0 0 0 0 0 0 0 0 0 0 0 0 2 5 8 11 16 19 19 23 31 36 37 34 28 26 26 29 32 32 31 30 30 29 27 25 25 26 26 25 23 23
0 0 0 0 0 0 0 0 0 0 0 0 0 0 2 6 10 13 17 21 22 25 30 34 35 31 25 20 17 18 23 25 25 24 25 27 26 23 22 22 23 23 23 24
0 0 0 0 0 0 0 0 0 0 0 0 0 1 4 8 11 13 15 19 23 25 26 27 29 27 22 18 13 13 16 19 18 18 20 25 25 22 19 20 22 22 21 21
0 0 0 0 0 0 0 0 0 0 0 0 0 1 4 7 8 9 11 16 20 21 20 19 21 22 20 18 15 14 16 16 14 13 16 20 22 20 17 17 19 19 18 18
0 0 0 0 0 0 0 0 0 0 0 0 0 0 2 5 5 4 5 10 15 15 13 13 16 18 17 17 15 15 15 13 11 10 10 12 15 15 14 14 16 16 15 15
0 0 0 0 0 0 0 0 0 0 0 0 0 0 1 2 2 2 3 5 9 11 10 11 14 16 16 14 13 13 13 10 8 7 5 6 8 9 10 12 14 15 13 12
0 0 0 0 0 0 0 0 0 0 0 0 0 0 1 1 1 2 3 4 7 9 8 10 13 15 13 11 11 11 9 7 6 5 5 5 6 6 8 10 13 13 12 11
0 0 0 0 0 0 0 0 0 0 0 0 0 0 1 1 1 1 2 5 7 7 6 7 10 12 10 8 8 7 5 5 5 6 6 7 7 7 7 9 10 11 12 12
0 0 0 0 0 0 0 0 0 0 0 0 0 0 0 0 1 2 3 5 6 6 5 6 8 9 8 7 6 3 3 4 5 6 6 6 7 7 8 9 9 10 10 11
0 0 0 0 0 0 0 0 0 0 0 0 1 1 1 1 2 2 3 6 7 6 6 7 8 7 6 5 3 2 3 4 5 4 4 4 5 6 7 8 8 9 9 9
1 1 0 0 0 0 0 0 0 0 0 0 1 2 1 1 1 1 3 6 7 6 7 8 8 6 4 2 1 1 2 4 5 4 3 3 4 6 6 7 7 7 8 9
0 0 0 0 0 0 0 0 0 0 0 0 1 1 2 1 0 1 3 5 6 5 5 5 4 4 3 2 1 0 1 3 5 4 3 3 4 6 6 6 7 7 8 8
1 0 0 0 0 0 0 0 0 0 0 0 1 2 3 2 1 1 3 4 3 2 3 3 3 3 3 3 2 1 1 2 4 4 3 3 4 5 6 6 6 7 7 7
1 0 0 0 0 0 0 0 0 0 0 1 1 2 3 2 1 2 3 4 4 4 4 3 3 4 4 3 3 3 1 1 3 3 3 3 3 4 5 5 5 5 5 5
1 0 0 0 0 0 0 0 0 0 1 2 3 3 3 2 1 2 3 5 7 8 7 5 4 3 3 4 4 3 1 1 2 2 2 1 1 2 3 3 3 3 4 4
0 0 0 0 0 0 0 0 0 0 1 3 4 4 3 3 4 5 6 7 8 8 7 5 3 2 3 5 5 4 2 1 1 1 1 1 1 2 1 1 2 3 3 3
0 0 0 0 0 0 0 0 0 0 1 3 4 3 4 7 10 10 8 7 7 6 4 3 1 1 3 4 5 4 2 1 1 1 2 3 3 2 2 1 2 3 3 3
1 0 0 0 0 0 0 0 0 0 1 2 3 4 6 10 12 11 8 7 7 5 2 1 0 1 2 4 4 3 2 2 2 2 2 2 2 3 3 2 3 4 4 4
1 0 0 0 0 0 0 0 0 0 0 1 2 4 6 9 9 7 6 6 6 4 2 1 0 1 2 3 2 1 2 2 2 2 2 1 1 3 4 4 4 5 5 4
1 1 0 0 0 0 0 0 0 0 0 0 1 2 4 6 6 5 4 4 4 4 3 3 2 1 2 3 2 1 1 1 1 2 1 0 1 2 4 4 4 4 4 4
2 2 1 1 1 0 0 0 0 0 0 0 0 1 3 5 5 5 5 4 4 4 4 4 4 2 1 2 2 1 0 0 0 1 1 0 1 2 3 3 3 3 2 2
3 3 2 2 2 1 0 0 0 0 0 0 0 0 2 5 5 5 5 6 4 4 4 5 5 3 1 1 2 1 0 0 0 0 0 0 1 3 3 2 1 1 1 1

GEFSCGP_con_prob3kmehi_216.txt.gz
EHI
0 0 0 0 0 0 0 0 0 1 2 4 6 6 7 8 8 7 11 18 23 21 21 23 24 25 26 25 25 25 24 23 23 25 24 20 16 13 11 11 8 5 4 4
0 0 0 0 0 0 0 0 0 0 1 3 4 5 6 8 10 11 14 21 25 25 24 24 22 22 24 24 23 24 24 24 24 24 22 18 15 15 13 12 9 7 6 6
0 0 0 0 0 0 0 0 0 0 0 1 1 2 4 8 10 13 16 20 24 25 25 23 20 19 20 19 19 22 23 24 23 22 19 16 15 16 14 11 9 8 9 9
0 0 0 0 0 0 0 0 0 0 0 0 0 0 2 5 7 9 12 15 19 22 23 22 20 18 16 15 15 17 19 20 20 18 16 13 13 14 12 8 7 8 10 11
0 0 0 0 0 0 0 0 0 0 0 0 0 0 1 3 4 5 8 11 15 19 20 19 17 15 13 11 11 12 14 15 15 14 13 11 11 11 8 6 6 7 9 11
0 0 0 0 0 0 0 0 0 0 0 0 0 0 1 2 4 5 7 8 12 15 16 15 13 11 9 8 7 8 10 12 11 10 10 9 8 7 6 5 5 6 8 9
0 0 0 0 0 0 0 0 0 0 0 0 0 0 1 2 3 4 5 6 8 10 11 10 9 8 7 6 6 6 8 9 8 8 8 7 5 4 4 3 4 5 6 6
0 0 0 0 0 0 0 0 0 0 0 0 0 0 0 1 1 2 2 3 4 5 5 5 6 7 6 6 5 5 4 4 5 6 6 5 4 3 3 1 1 3 4 4
0 0 0 0 0 0 0 0 0 0 0 0 0 0 0 0 1 0 0 1 1 1 1 1 3 4 4 4 3 2 2 2 2 3 3 2 2 2 2 1 0 1 1 1
0 0 0 0 0 0 0 0 0 0 0 0 0 0 0 0 0 0 0 0 1 1 1 0 1 1 1 1 1 0 1 1 1 1 1 1 1 1 1 0 0 0 0 0
0 0 0 0 0 0 0 0 0 0 0 0 0 0 0 0 0 0 0 0 1 1 1 0 0 0 0 0 0 0 0 0 0 0 1 2 2 1 0 0 0 0 0 0
0 0 0 0 0 0 0 0 0 0 0 0 0 0 0 0 0 0 0 0 1 1 0 0 0 0 0 0 0 0 0 0 0 0 1 2 3 2 1 1 1 1 0 0
0 0 0 0 0 0 0 0 0 0 0 0 0 0 0 0 0 0 0 0 1 0 0 0 0 0 0 0 0 0 0 0 0 0 1 2 3 3 3 2 2 2 1 0
0 0 0 0 0 0 0 0 0 0 0 0 0 0 0 0 0 0 0 0 0 0 0 0 0 0 0 0 0 0 0 0 0 0 0 1 1 3 3 3 3 3 2 1
0 0 0 0 0 0 0 0 0 0 0 0 0 0 0 0 0 0 0 0 0 0 0 0 0 0 0 0 0 0 0 0 0 0 0 0 1 2 3 3 3 3 3 3
0 0 0 0 0 0 0 0 0 0 0 0 0 0 0 0 0 0 0 0 0 0 0 0 0 0 0 0 0 0 0 0 0 0 0 0 0 1 2 3 3 3 3 2
0 0 0 0 0 0 0 0 0 0 0 0 0 1 1 1 0 0 0 0 0 0 0 0 0 0 0 0 0 0 0 0 0 0 0 0 0 0 1 1 2 2 1 1
0 0 0 0 0 0 0 0 0 0 1 1 1 2 2 2 1 0 0 0 0 0 0 0 0 0 0 0 0 0 0 0 0 0 0 0 0 0 0 0 1 1 1 1
0 0 0 0 0 0 0 0 0 0 1 2 2 2 2 2 1 0 0 0 0 0 0 0 0 0 0 0 0 0 0 0 0 0 0 0 0 0 0 0 0 1 2 2
0 0 0 0 0 0 0 0 0 0 1 1 1 1 1 1 1 0 0 0 0 0 0 0 0 0 0 0 0 0 0 0 0 0 0 0 0 0 0 0 0 1 2 3
0 0 0 0 0 0 0 0 0 0 0 0 0 0 0 0 0 0 0 0 0 0 0 0 0 0 0 0 0 0 0 0 0 0 0 0 0 0 0 0 0 1 1 1
0 0 0 0 0 0 0 0 0 0 0 0 0 0 0 0 0 0 0 0 0 0 0 0 0 0 0 0 0 0 0 0 0 0 0 0 0 0 0 0 0 0 0 0
0 0 0 0 0 0 0 0 0 0 0 0 0 0 0 0 0 0 0 0 0 0 0 0 0 0 0 0 0 0 0 0 0 0 0 0 0 0 0 0 0 0 0 0
0 0 0 0 0 0 0 0 0 0 0 0 0 0 0 0 0 0 0 0 0 0 0 0 0 0 0 0 0 0 0 0 0 0 0 0 0 0 0 0 0 0 0 0
0 0 0 0 0 0 0 0 0 0 0 0 0 0 0 0 0 0 0 0 0 0 0 0 0 0 0 0 0 0 0 0 0 0 0 0 0 0 0 0 0 0 0 0
0 0 0 0 0 0 0 0 0 0 0 0 0 0 0 0 0 0 0 0 0 0 0 0 0 0 0 0 0 0 0 0 0 0 0 0 0 0 0 0 0 0 0 0

GEFSCGP_con_prob3kmehi_222.txt.gz
EHI
0 0 0 0 0 0 0 0 0 0 1 1 1 1 3 7 9 8 6 5 4 7 9 9 9 11 11 11 10 9 9 7 7 7 7 6 6 4 3 3 3 3 3 1
0 0 0 0 0 0 0 0 0 0 0 0 0 0 3 6 8 8 6 4 3 6 10 11 10 9 9 9 9 8 8 8 7 7 6 6 6 4 4 3 3 3 2 1
0 0 0 0 0 0 0 0 0 0 0 0 0 0 2 4 6 7 6 3 2 4 9 11 10 8 8 7 7 7 7 8 7 5 5 6 5 4 3 3 2 2 1 1
0 0 0 0 0 0 0 0 0 0 0 0 0 0 2 3 4 4 4 2 1 3 7 9 9 7 6 5 5 5 6 6 4 3 4 4 3 2 1 1 1 1 0 1
0 0 0 0 0 0 0 0 0 0 0 0 0 0 1 2 3 2 1 1 1 4 6 7 7 6 4 3 3 4 4 4 2 1 2 2 1 0 0 0 0 0 0 0
0 0 0 0 0 0 0 0 0 0 0 0 0 0 0 1 1 1 1 0 3 6 6 6 6 4 2 1 2 2 2 1 0 0 1 1 0 0 0 0 0 0 0 0
0 0 0 0 0 0 0 0 0 0 0 0 0 0 0 0 0 0 0 1 4 5 5 4 4 3 1 0 1 1 1 0 0 0 0 0 0 0 0 0 0 0 0 0
0 0 0 0 0 0 0 0 0 0 0 0 0 0 0 0 0 0 0 1 3 3 2 2 2 2 1 0 0 1 1 1 0 0 0 0 0 0 0 0 0 0 0 0
0 0 0 0 0 0 0 0 0 0 0 0 0 0 0 0 0 0 0 1 2 2 1 1 1 1 0 0 0 1 2 1 0 0 0 0 0 0 0 0 0 0 0 0
0 0 0 0 0 0 0 0 0 0 0 0 0 0 0 0 0 0 0 1 1 1 0 0 0 0 0 0 0 1 2 1 0 0 0 0 0 0 0 0 0 0 0 0
0 0 0 0 0 0 0 0 0 0 0 0 0 0 0 0 0 0 0 0 0 0 0 0 0 0 0 0 0 1 1 0 0 0 0 0 0 0 0 0 0 0 0 0
0 0 0 0 0 0 0 0 0 0 0 0 0 0 0 0 0 0 0 0 0 0 0 0 0 0 0 0 0 0 0 0 0 0 0 0 0 0 0 0 0 0 0 0
0 0 0 0 0 0 0 0 0 0 0 0 0 0 0 0 0 0 0 0 0 0 0 0 0 0 0 0 0 0 0 0 0 0 0 0 0 0 0 0 0 0 0 0
0 0 0 0 0 0 0 0 0 0 0 0 0 0 0 0 0 0 0 0 0 0 0 0 0 0 0 0 0 0 0 0 0 0 0 0 0 0 0 0 0 0 0 0
0 0 0 0 0 0 0 0 0 0 0 0 0 0 0 0 0 0 0 0 0 0 0 0 0 0 0 0 0 0 0 0 0 0 0 0 0 0 0 0 0 0 0 0
0 0 0 0 0 0 0 0 0 0 0 0 0 0 0 0 0 0 0 0 0 0 0 0 0 0 0 0 0 0 0 0 0 0 0 0 0 0 0 0 0 0 0 0
0 0 0 0 0 0 0 0 0 0 0 0 0 0 0 0 0 0 0 0 0 0 0 0 0 0 0 0 0 0 0 0 0 0 0 0 0 0 0 0 0 0 0 0
0 0 0 0 0 0 0 0 0 0 0 0 0 0 0 0 0 0 0 0 0 0 0 0 0 0 0 0 0 0 0 0 0 0 0 0 0 0 0 0 0 0 0 0
0 0 0 0 0 0 0 0 0 0 0 0 0 0 0 0 0 0 0 0 0 0 0 0 0 0 0 0 0 0 0 0 0 0 0 0 0 0 0 0 0 0 0 0
0 0 0 0 0 0 0 0 0 0 0 0 0 0 0 0 0 0 0 0 0 0 0 0 0 0 0 0 0 0 0 0 0 0 0 0 0 0 0 0 0 0 0 0
0 0 0 0 0 0 0 0 0 0 0 0 0 0 0 0 0 0 0 0 0 0 0 0 0 0 0 0 0 0 0 0 0 0 0 0 0 0 0 0 0 0 0 0
0 0 0 0 0 0 0 0 0 0 0 0 0 0 0 0 0 0 0 0 0 0 0 0 0 0 0 0 0 0 0 0 0 0 0 0 0 0 0 0 0 0 0 0
0 0 0 0 0 0 0 0 0 0 0 0 0 0 0 0 0 0 0 0 0 0 0 0 0 0 0 0 0 0 0 0 0 0 0 0 0 0 0 0 0 0 0 0
0 0 0 0 0 0 0 0 0 0 0 0 0 0 0 0 0 0 0 0 0 0 0 0 0 0 0 0 0 0 0 0 0 0 0 0 0 0 0 0 0 0 0 0
0 0 0 0 0 0 0 0 0 0 0 0 0 0 0 0 0 0 0 0 0 0 0 0 0 0 0 0 0 0 0 0 0 0 0 0 0 0 0 0 0 0 0 0
0 0 0 0 0 0 0 0 0 0 0 0 0 0 0 0 0 0 0 0 0 0 0 0 0 0 0 0 0 0 0 0 0 0 0 0 0 0 0 0 0 0 0 0

GEFSCGP_con_prob3kmehi_228.txt.gz
EHI
0 0 0 0 0 0 0 0 1 2 2 1 0 0 0 0 1 2 3 4 6 10 13 15 15 15 14 13 14 14 15 17 19 19 20 20 18 16 15 15 16 17 18 17
0 0 0 0 0 0 0 0 0 1 1 0 0 0 0 0 1 2 3 4 7 11 14 16 18 18 15 12 11 11 11 13 17 18 20 20 19 16 14 14 15 17 17 17
0 0 0 0 0 0 0 0 0 0 0 0 0 0 0 1 1 2 3 5 8 12 14 16 18 19 16 11 9 6 7 9 13 15 17 17 17 15 14 14 15 16 15 14
0 0 0 0 0 0 0 0 0 0 0 0 0 0 0 0 1 2 3 3 6 12 14 14 15 17 15 11 8 7 7 8 9 11 13 14 13 12 12 11 12 14 14 12
0 0 0 0 0 0 0 0 0 0 0 0 0 0 0 1 1 2 2 2 4 9 11 11 13 14 13 10 9 9 9 7 7 8 10 12 11 9 8 8 10 12 13 12
0 0 0 0 0 0 0 0 0 0 0 0 0 0 1 2 3 3 3 3 3 6 7 8 10 12 12 10 9 9 8 7 6 7 9 10 10 7 6 7 9 11 11 11
0 0 0 0 0 0 0 0 0 0 0 0 0 0 1 2 3 3 3 3 3 3 4 4 7 11 11 8 7 6 6 6 6 6 6 7 6 5 4 5 7 9 10 9
0 0 0 0 0 0 0 0 0 0 0 0 0 0 0 1 1 1 1 1 1 2 3 3 5 7 8 6 4 4 5 6 5 5 4 4 3 3 3 4 5 7 7 6
0 0 0 0 0 0 0 0 0 0 0 0 0 0 0 0 0 0 0 0 1 1 2 3 3 3 4 4 5 5 5 5 4 3 3 3 2 2 3 4 4 5 4 3
0 0 0 0 0 0 0 0 0 0 0 0 0 0 0 0 0 0 0 0 1 2 2 2 2 1 2 4 5 6 5 4 3 3 4 3 2 2 3 4 4 3 3 3
0 0 0 0 0 0 0 0 0 0 0 0 0 0 0 0 0 0 0 0 1 1 1 2 2 1 1 2 4 5 4 2 1 1 2 2 1 1 3 4 4 3 2 3
0 0 0 0 0 0 0 0 0 0 0 0 0 1 0 0 0 0 0 0 0 0 0 1 1 0 0 1 2 3 2 0 0 0 1 1 0 0 1 3 3 2 2 3
0 0 0 0 0 0 0 0 0 0 0 0 0 0 0 0 0 0 0 0 0 0 0 0 0 0 0 1 2 2 1 0 0 0 0 1 1 1 1 1 1 2 3 3
0 0 0 0 0 0 0 0 0 0 0 0 0 0 0 0 0 0 0 0 0 0 0 1 1 1 2 1 1 1 0 1 1 1 0 1 2 2 2 2 2 2 2 2
0 0 0 0 0 1 1 0 0 0 0 0 0 0 0 0 0 0 0 0 0 0 0 1 2 3 4 3 1 0 0 1 1 1 0 1 2 2 3 3 2 1 1 2
0 0 0 0 0 2 2 1 0 0 0 0 0 0 0 0 0 0 0 0 0 0 0 1 3 5 7 5 3 1 1 1 1 0 0 0 0 1 2 2 2 2 2 2
0 0 0 0 0 1 3 2 0 0 0 0 0 0 0 0 0 0 0 0 0 0 0 1 4 7 9 8 6 3 1 0 0 0 0 0 0 0 1 1 1 2 3 3
0 0 0 0 0 0 1 1 0 0 0 0 0 0 0 1 2 1 1 0 1 1 1 3 6 9 10 9 7 4 1 0 0 0 0 0 0 0 0 0 1 2 3 3
0 0 0 0 0 0 0 0 0 0 0 0 0 1 1 1 2 2 1 1 1 2 2 3 5 7 9 8 6 3 1 0 0 0 0 0 0 0 0 0 1 2 3 3
0 0 0 0 0 0 0 0 0 0 0 0 0 0 0 1 1 2 1 0 1 1 2 3 3 3 6 5 4 2 1 0 0 0 0 0 0 0 0 0 0 1 2 2
0 0 0 0 0 0 0 0 0 0 1 0 0 0 0 0 1 1 0 0 0 0 1 2 1 1 2 2 1 1 0 0 0 0 0 0 0 0 0 0 0 0 1 1
0 0 0 0 0 0 0 0 0 0 0 0 0 0 0 1 2 1 1 0 0 0 0 1 1 1 1 1 1 0 0 0 0 0 0 0 0 0 0 0 0 0 0 0
0 0 0 0 0 0 0 0 0 0 0 0 0 0 0 1 2 2 1 1 2 1 1 1 1 2 2 2 2 1 0 0 0 0 0 0 0 0 0 0 0 0 0 0
0 0 0 0 0 0 0 0 0 0 0 0 0 0 0 1 1 1 1 2 3 3 2 2 3 3 3 3 2 1 0 0 0 0 0 0 0 0 0 0 0 0 0 0
0 0 0 0 0 0 0 0 0 0 0 0 0 0 0 0 0 0 1 3 3 3 3 4 3 3 3 3 3 1 0 0 0 0 0 0 0 0 0 0 0 0 0 0
0 0 0 0 0 0 0 0 0 0 0 0 0 0 0 0 0 1 2 3 3 3 4 4 4 3 3 3 3 2 1 0 0 0 0 0 0 0 0 0 0 0 0 0

GEFSCGP_con_prob3kmehi_234.txt.gz
EHI
0 0 0 0 0 0 0 0 0 1 0 0 1 4 6 9 11 13 16 17 20 24 26 27 29 32 34 37 37 34 31 30 29 27 26 26 25 24 24 24 25 25 23 23
0 0 0 0 0 0 0 0 0 1 0 0 1 3 5 8 11 12 12 14 19 22 24 26 28 30 33 35 35 32 29 27 28 28 27 27 26 23 22 24 26 25 23 23
0 0 0 0 0 0 0 0 0 0 0 0 1 2 4 7 10 11 9 11 15 18 20 22 25 28 31 33 32 30 27 25 26 27 27 27 26 23 22 23 25 24 22 22
0 0 0 0 0 0 0 0 0 0 0 0 0 1 3 5 7 9 8 9 12 15 18 21 25 28 30 29 29 28 26 25 25 26 26 26 24 23 23 22 23 22 21 20
0 0 0 0 0 0 0 0 0 0 0 0 0 1 3 4 5 8 8 8 10 14 17 22 26 27 27 26 26 26 24 25 25 24 24 23 20 20 20 20 20 21 19 17
0 0 0 0 0 0 0 0 0 0 0 0 0 1 2 3 5 7 10 9 8 10 14 18 23 23 22 22 23 23 22 22 24 24 21 19 17 16 16 16 16 17 15 13
0 0 0 0 0 0 0 0 0 0 0 0 0 0 2 4 5 8 10 10 7 8 11 14 18 19 18 18 19 20 19 20 22 23 20 17 14 12 12 12 12 12 10 10
0 0 0 0 0 0 0 0 0 0 0 0 0 0 2 4 6 7 8 7 6 8 10 11 14 16 17 18 18 18 18 18 19 19 17 13 10 7 7 9 9 8 8 8
0 0 0 0 0 0 0 0 0 0 0 0 0 0 2 3 4 5 4 3 4 6 7 9 12 15 15 17 19 19 17 16 15 14 12 9 6 5 6 7 8 7 6 6
0 0 0 0 0 0 0 0 0 0 0 0 0 0 0 1 1 2 2 1 2 4 6 8 11 12 11 11 14 16 16 13 11 10 8 6 6 6 6 7 8 7 5 4
0 0 0 0 0 0 0 0 0 0 0 0 0 0 0 0 0 0 0 1 2 3 5 7 9 9 7 6 7 10 11 10 8 7 5 4 5 6 7 7 7 6 5 3
0 0 0 0 0 0 0 0 0 0 0 0 0 0 1 1 1 0 0 1 2 3 5 6 7 7 6 5 5 6 7 6 4 3 2 2 3 4 5 7 7 7 6 5
0 0 0 0 0 0 0 0 0 0 0 0 0 0 1 2 1 0 0 1 3 4 5 5 5 6 7 6 5 6 6 4 3 2 2 2 3 3 4 5 7 7 6 6
0 0 0 0 0 0 0 0 0 0 0 0 0 0 1 1 0 0 0 1 2 4 4 4 5 7 9 7 7 6 5 4 4 4 3 4 5 5 4 4 5 5 5 6
0 0 0 0 0 0 1 1 1 1 0 0 0 0 0 0 0 0 0 0 1 2 2 3 5 10 11 9 7 6 5 4 4 4 4 4 4 5 4 3 2 3 4 4
1 1 0 0 0 1 2 2 2 2 1 0 0 0 0 0 0 1 1 0 0 0 1 2 7 11 12 11 9 7 5 5 4 4 3 3 3 4 3 1 1 2 3 3
2 1 0 0 0 1 2 2 2 1 1 0 0 0 0 0 2 3 2 1 1 0 1 5 9 12 14 12 10 8 6 6 6 5 4 3 3 3 2 2 3 4 4 4
3 2 1 0 0 0 1 1 0 1 1 0 0 0 0 2 4 5 5 4 3 2 4 8 12 14 15 14 11 8 7 7 6 5 3 2 3 3 3 4 5 6 6 6
2 2 1 0 0 0 0 0 0 0 1 0 0 1 2 4 6 8 9 7 6 7 8 10 12 13 15 14 11 8 7 6 6 4 2 1 1 3 3 4 6 7 7 7
1 1 1 0 0 0 0 0 0 0 1 1 1 2 4 6 7 9 11 10 11 12 10 8 9 11 13 13 11 9 7 6 5 2 0 0 1 2 2 3 3 5 5 5
0 0 0 0 0 0 0 0 0 0 1 2 2 3 6 7 8 9 11 12 12 11 8 6 7 8 10 12 11 9 6 5 3 1 0 0 0 1 1 1 1 2 3 3
0 0 0 0 0 0 0 0 0 0 2 3 3 3 4 6 6 8 10 10 9 6 5 5 6 8 9 9 9 7 5 4 2 1 1 0 0 0 0 0 0 0 1 1
0 0 0 0 0 0 0 0 0 0 1 2 2 2 2 4 5 6 8 8 6 3 4 6 6 6 7 7 5 4 4 3 2 2 2 1 0 0 0 0 0 0 0 0
0 0 0 0 0 0 0 0 0 0 0 1 1 1 1 3 4 5 6 7 5 3 4 6 6 5 5 5 4 3 4 3 3 3 3 2 1 0 1 1 1 0 0 0
0 0 0 0 0 0 0 0 0 0 0 0 0 0 1 2 3 3 5 5 5 3 3 5 5 4 5 5 4 3 3 3 3 3 3 2 1 0 1 2 1 1 1 1
0 0 0 1 1 1 1 1 1 0 0 0 0 0 0 1 2 3 3 4 3 2 2 4 4 4 5 5 4 3 3 3 3 3 3 2 1 0 1 1 1 1 1 0

GEFSCGP_con_prob3kmehi_240.txt.gz
EHI
0 0 0 0 0 0 0 0 0 0 0 0 0 1 2 5 6 8 10 13 15 16 16 18 21 22 20 20 18 15 15 17 19 20 20 18 14 11 11 10 8 5 4 6
0 0 0 0 0 0 0 0 0 0 0 0 0 1 3 5 7 8 10 12 15 16 17 20 23 21 19 20 20 17 16 17 17 17 18 17 14 12 12 11 9 7 5 4
0 0 0 0 0 0 0 0 0 0 0 0 0 0 2 4 6 8 9 11 13 16 18 21 22 19 16 18 18 17 16 16 15 16 16 16 14 13 12 11 10 8 6 5
0 0 0 0 0 0 0 0 0 0 0 0 0 0 0 2 5 7 8 9 11 14 16 19 18 15 13 13 14 14 14 13 14 14 15 15 14 12 10 9 8 6 6 6
0 0 0 0 0 0 0 0 0 0 0 0 0 0 0 2 4 6 6 7 9 10 11 13 13 10 9 10 10 11 10 10 11 11 12 12 10 8 7 8 6 4 3 4
0 0 0 0 0 0 0 0 0 0 0 0 0 0 0 1 3 4 5 6 6 6 6 8 8 7 7 8 8 8 8 7 7 7 7 7 5 4 5 6 5 2 1 1
0 0 0 0 0 0 0 0 0 0 0 0 0 0 0 0 1 2 3 5 6 5 4 6 7 6 6 6 6 7 7 6 4 3 4 4 2 2 3 5 3 1 0 0
0 0 0 0 0 0 0 0 0 0 0 0 0 0 0 0 0 1 2 4 6 4 4 6 6 6 5 4 4 5 6 5 4 3 3 2 1 1 2 3 2 1 0 0
0 0 0 0 0 0 0 0 0 0 0 0 0 0 0 0 0 0 1 3 4 4 4 6 6 6 4 3 3 4 5 4 3 3 2 1 0 0 1 1 1 0 0 0
0 0 0 0 0 0 0 0 0 0 0 0 0 0 0 0 0 0 1 2 3 4 5 6 6 5 4 3 3 3 2 2 1 1 2 1 0 0 0 0 0 0 0 0
0 0 0 0 0 0 0 0 0 0 0 0 0 0 0 0 0 0 1 2 3 4 6 6 5 4 3 3 3 2 1 0 0 0 0 0 0 0 0 0 0 0 0 0
0 0 0 0 0 0 0 0 0 0 0 0 0 0 0 0 0 0 1 2 3 4 5 5 4 4 4 4 4 3 1 0 0 0 0 0 0 0 0 0 0 0 0 0
0 0 0 0 0 0 0 0 0 0 0 0 0 0 0 0 0 0 1 2 3 3 4 4 4 4 5 5 5 3 1 0 0 0 0 0 0 0 0 0 0 0 0 0
0 0 0 0 0 0 1 1 0 0 0 0 0 0 0 0 0 0 0 1 3 3 3 3 3 3 4 4 4 2 1 0 0 0 0 0 0 0 0 0 0 0 0 0
0 0 0 0 0 0 1 2 1 0 0 0 0 0 0 0 0 0 0 1 2 3 3 2 1 1 1 1 1 1 0 0 0 0 0 0 0 0 0 0 0 0 0 0
0 0 0 0 0 0 1 1 1 0 0 0 0 0 0 0 0 0 0 1 2 3 2 1 0 0 0 0 0 0 0 0 0 0 0 0 0 0 0 0 0 0 0 0
0 0 0 0 0 0 0 0 0 0 0 0 0 0 0 0 0 0 0 1 2 2 2 1 0 0 0 0 0 0 0 0 0 0 0 0 0 0 0 0 0 0 0 0
0 0 0 0 0 0 0 0 0 0 0 0 0 0 0 0 0 0 1 1 2 3 3 2 1 0 0 0 0 0 0 0 0 0 0 0 0 0 0 0 0 0 0 0
0 0 0 0 0 0 0 0 0 0 0 0 0 0 0 0 0 1 2 3 3 3 3 2 1 1 1 0 1 1 0 0 0 0 0 0 0 0 0 0 0 0 0 0
0 0 0 0 0 0 0 0 0 0 0 0 0 0 0 0 0 1 2 2 2 2 2 3 3 2 1 1 1 1 0 0 0 0 0 0 0 0 0 0 0 0 0 0
0 0 0 0 0 0 0 0 0 0 0 0 0 0 0 0 0 1 1 2 2 2 2 2 2 2 1 0 1 1 0 0 0 0 0 0 0 0 0 0 0 0 0 0
0 0 0 0 0 0 0 0 0 0 0 0 0 0 1 1 1 2 2 2 2 2 1 1 1 1 0 0 0 0 0 0 0 0 0 0 0 0 0 0 0 0 0 0
0 0 0 0 0 0 0 0 0 0 0 0 0 1 2 2 3 3 3 3 3 2 1 0 0 0 0 0 0 0 0 0 0 0 0 0 0 0 0 0 0 0 0 0
0 0 0 0 0 0 0 0 0 0 0 0 0 2 3 3 3 3 3 3 3 2 1 0 0 0 0 0 0 0 0 0 0 0 0 0 0 0 0 0 0 0 0 0
0 0 0 0 0 0 0 0 0 0 0 1 1 2 3 3 3 3 3 2 2 1 0 0 0 0 0 0 0 0 0 0 0 0 0 0 0 0 0 0 0 0 0 0
0 0 0 0 0 0 0 0 0 0 1 2 2 2 3 3 3 3 2 1 1 0 0 0 0 0 0 0 0 0 0 0 0 0 0 0 0 0 0 0 0 0 0 0